{"data":{"norad_id":57958,"epoch":"2026-09-21T23:27:38.864160Z","epoch_age_seconds":106191,"freshness":"FRESH","line1":"1 57958U 23149A   26264.97753315  .00000255  00000+0  64371-4 0  9999","line2":"2 57958  98.2058 213.1319 0002067  76.1149 284.0280 14.58804244159112","mean_motion":14.58804244,"eccentricity":0.0002067,"inclination_deg":98.2058,"raan_deg":213.1319,"arg_perigee_deg":76.1149,"mean_anomaly_deg":284.028,"bstar":6.4371e-5,"rev_number":15911,"period_min":98.710982362621,"perigee_km":695.57517457511,"apogee_km":698.50005176019,"semimajor_km":7075.1746131677,"source":"CELESTRAK","updated_at":"2026-09-22T09:00:26.405838Z"}}